Location: Cabeza de los Veneras
(40.2000°N, 5.2000°W)
Time: 02:20:25
(UTC+00:00)

CZ-4C R/B - Pass Details

Date: 18 April 2024
Orbit: 530 x 1463 km, 63.4° (Epoch: 25 May)

Event Time Altitude Azimuth Distance (km) Brightness Sun altitude
Rises 22:17:54 0° 325° (NW) 3,865 6.8 -31.3°
Reaches altitude 10° 22:20:21 10° 326° (NW) 3,027 5.9 -31.6°
Maximum altitude 22:27:52 88° 56° (ENE) 1,317 3.0 -32.4°
Enters shadow 22:28:21 81° 131° (SE) 1,338 2.9 -32.4°
